UAL2849 KEWR-TDPD

Flight info

Callsign UAL2849
Flight time N/A
Altitude 37000
Route DCT ELVAE DCT NECCK DCT DIXIE Y482 SQUAD/M080F370 DCT DARUX L459 KEEKA/N0464F370 L459 ODUCA DCT ELOPO DCT PPR DCT
Aircraft B737/M-SDE2E3FGHIRWXY/LB1

Departure

Time N/A
Airport Newark Liberty International Airport (KEWR)

Arrival

Time 2026-04-20 22:01
Airport Douglas-Charles Airport (TDPD)
Time Latitude Longitude Altitude Speed Heading
2026-04-20 21:19 19.23981 -63.59680 37008 ft 492 kts 150°
2026-04-20 21:19 19.16602 -63.54773 37012 ft 492 kts 150°
2026-04-20 21:20 19.07913 -63.49001 37029 ft 491 kts 150°
2026-04-20 21:20 19.02122 -63.45173 37018 ft 491 kts 150°
2026-04-20 21:21 18.96334 -63.41356 37011 ft 490 kts 150°
2026-04-20 21:21 18.90556 -63.37545 37014 ft 490 kts 150°
2026-04-20 21:22 18.84781 -63.33734 37012 ft 488 kts 150°
2026-04-20 21:22 18.79023 -63.29938 37023 ft 488 kts 150°
2026-04-20 21:23 18.73270 -63.26144 37018 ft 488 kts 150°
2026-04-20 21:23 18.67508 -63.22351 37021 ft 489 kts 150°
2026-04-20 21:24 18.61773 -63.18584 37019 ft 489 kts 150°
2026-04-20 21:24 18.55994 -63.14788 37026 ft 490 kts 150°
2026-04-20 21:25 18.50203 -63.10985 37017 ft 491 kts 150°
2026-04-20 21:25 18.44411 -63.07182 37018 ft 489 kts 150°
2026-04-20 21:26 18.38630 -63.03395 37020 ft 490 kts 150°
2026-04-20 21:26 18.32844 -62.99604 37021 ft 490 kts 150°
2026-04-20 21:27 18.27054 -62.95820 37022 ft 490 kts 150°
2026-04-20 21:27 18.21273 -62.92044 37014 ft 489 kts 150°
2026-04-20 21:28 18.15502 -62.88276 37018 ft 487 kts 150°
2026-04-20 21:28 18.09746 -62.84514 37024 ft 487 kts 150°
2026-04-20 21:29 18.03984 -62.80754 37016 ft 488 kts 150°
2026-04-20 21:29 17.98200 -62.76993 37017 ft 490 kts 150°
2026-04-20 21:30 17.92426 -62.73225 37018 ft 488 kts 150°
2026-04-20 21:30 17.86667 -62.69476 37017 ft 486 kts 151°
2026-04-20 21:31 17.80926 -62.65746 37015 ft 485 kts 151°
2026-04-20 21:31 17.75190 -62.62014 37017 ft 485 kts 151°
2026-04-20 21:32 17.69456 -62.58293 37016 ft 484 kts 151°
2026-04-20 21:32 17.63755 -62.54550 37004 ft 484 kts 149°
2026-04-20 21:33 17.58225 -62.50524 37014 ft 484 kts 147°
2026-04-20 21:33 17.52752 -62.46416 37021 ft 484 kts 147°
2026-04-20 21:34 17.47258 -62.42318 37022 ft 485 kts 147°
2026-04-20 21:34 17.41733 -62.38239 37017 ft 487 kts 147°
2026-04-20 21:35 17.36191 -62.34158 37006 ft 487 kts 148°
2026-04-20 21:35 17.30677 -62.30103 36995 ft 488 kts 148°
2026-04-20 21:36 17.25090 -62.25996 37010 ft 487 kts 148°
2026-04-20 21:36 17.22336 -62.23970 36520 ft 493 kts 148°
2026-04-20 21:36 17.19544 -62.21916 35930 ft 488 kts 148°
2026-04-20 21:36 17.16767 -62.19877 35149 ft 487 kts 147°
2026-04-20 21:37 17.13999 -62.17846 34362 ft 486 kts 147°
2026-04-20 21:37 17.11235 -62.15818 33530 ft 486 kts 147°
2026-04-20 21:37 17.08467 -62.13786 32653 ft 486 kts 146°
2026-04-20 21:37 17.05694 -62.11752 31749 ft 488 kts 146°
2026-04-20 21:38 17.02910 -62.09714 30799 ft 490 kts 146°
2026-04-20 21:38 17.00113 -62.07671 29788 ft 492 kts 146°
2026-04-20 21:38 16.97307 -62.05617 28699 ft 494 kts 145°
2026-04-20 21:38 16.94485 -62.03553 27507 ft 496 kts 145°
2026-04-20 21:39 16.91662 -62.01490 26531 ft 493 kts 145°
2026-04-20 21:39 16.88864 -61.99442 25633 ft 490 kts 145°
2026-04-20 21:39 16.86079 -61.97403 24784 ft 488 kts 146°
2026-04-20 21:39 16.83288 -61.95357 23910 ft 492 kts 146°
2026-04-20 21:40 16.80479 -61.93304 23009 ft 492 kts 146°
2026-04-20 21:40 16.77692 -61.91268 22118 ft 485 kts 146°
2026-04-20 21:40 16.74958 -61.89271 21245 ft 475 kts 145°
2026-04-20 21:40 16.72278 -61.87315 20376 ft 466 kts 145°
2026-04-20 21:41 16.69648 -61.85394 19530 ft 457 kts 145°
2026-04-20 21:41 16.67070 -61.83515 18682 ft 448 kts 145°
2026-04-20 21:41 16.64539 -61.81672 17843 ft 440 kts 145°
2026-04-20 21:41 16.62056 -61.79863 17022 ft 432 kts 145°
2026-04-20 21:42 16.59622 -61.78091 16557 ft 417 kts 145°
2026-04-20 21:42 16.57311 -61.76408 16381 ft 395 kts 145°
2026-04-20 21:42 16.55117 -61.74805 16200 ft 377 kts 145°
2026-04-20 21:42 16.53015 -61.73274 16039 ft 361 kts 145°
2026-04-20 21:43 16.51001 -61.71808 15881 ft 346 kts 145°
2026-04-20 21:43 16.49067 -61.70401 15742 ft 332 kts 145°
2026-04-20 21:43 16.47208 -61.69048 15605 ft 320 kts 145°
2026-04-20 21:43 16.45418 -61.67747 15470 ft 308 kts 145°
2026-04-20 21:44 16.43651 -61.66462 14979 ft 314 kts 145°
2026-04-20 21:44 16.41831 -61.65139 14416 ft 326 kts 145°
2026-04-20 21:44 16.39923 -61.63753 13821 ft 345 kts 145°
2026-04-20 21:44 16.37893 -61.62277 13698 ft 372 kts 145°
2026-04-20 21:45 16.35708 -61.60690 13511 ft 383 kts 145°
2026-04-20 21:45 16.33568 -61.59133 13316 ft 366 kts 145°
2026-04-20 21:45 16.31534 -61.57652 13144 ft 348 kts 145°
2026-04-20 21:45 16.29598 -61.56240 12999 ft 332 kts 145°
2026-04-20 21:46 16.27755 -61.54890 12876 ft 317 kts 145°
2026-04-20 21:46 16.25992 -61.53593 12659 ft 305 kts 145°
2026-04-20 21:46 16.24287 -61.52340 12421 ft 297 kts 145°
2026-04-20 21:46 16.22615 -61.51109 12106 ft 292 kts 144°
2026-04-20 21:47 16.20965 -61.49893 11764 ft 289 kts 145°
2026-04-20 21:47 16.19334 -61.48691 11420 ft 286 kts 145°
2026-04-20 21:47 16.17715 -61.47502 11036 ft 284 kts 145°
2026-04-20 21:47 16.16072 -61.46377 10648 ft 282 kts 148°
2026-04-20 21:48 16.14408 -61.45298 10279 ft 281 kts 148°
2026-04-20 21:48 16.12755 -61.44231 9913 ft 278 kts 147°
2026-04-20 21:48 16.11118 -61.43169 9547 ft 277 kts 147°
2026-04-20 21:48 16.09493 -61.42113 9180 ft 274 kts 147°
2026-04-20 21:49 16.07905 -61.41075 8832 ft 272 kts 147°
2026-04-20 21:49 16.06315 -61.40034 8505 ft 269 kts 146°
2026-04-20 21:49 16.04742 -61.38999 8149 ft 267 kts 146°
2026-04-20 21:49 16.03194 -61.37947 7782 ft 265 kts 145°
2026-04-20 21:50 16.01659 -61.36888 7448 ft 263 kts 144°
2026-04-20 21:50 16.00146 -61.35842 7277 ft 260 kts 144°
2026-04-20 21:50 15.98626 -61.34804 7238 ft 263 kts 145°
2026-04-20 21:50 15.97082 -61.33750 7250 ft 268 kts 145°
2026-04-20 21:51 15.95516 -61.32681 7256 ft 269 kts 145°
2026-04-20 21:51 15.93950 -61.31606 7256 ft 268 kts 145°
2026-04-20 21:51 15.92399 -61.30538 7188 ft 265 kts 144°
2026-04-20 21:51 15.90869 -61.29482 6961 ft 264 kts 144°
2026-04-20 21:52 15.89344 -61.28426 6723 ft 264 kts 144°
2026-04-20 21:52 15.87804 -61.27367 6483 ft 266 kts 144°
2026-04-20 21:52 15.86260 -61.26317 6237 ft 264 kts 145°
2026-04-20 21:52 15.84715 -61.25299 5981 ft 260 kts 144°
2026-04-20 21:53 15.83205 -61.24280 5725 ft 258 kts 144°
2026-04-20 21:53 15.81706 -61.23275 5472 ft 255 kts 144°
2026-04-20 21:53 15.80222 -61.22281 5220 ft 253 kts 144°
2026-04-20 21:53 15.78757 -61.21304 5039 ft 244 kts 144°
2026-04-20 21:54 15.77357 -61.20375 4894 ft 236 kts 145°
2026-04-20 21:54 15.75956 -61.19509 4599 ft 235 kts 147°
2026-04-20 21:54 15.74539 -61.18665 4290 ft 234 kts 148°
2026-04-20 21:54 15.73002 -61.18124 3952 ft 240 kts 176°
2026-04-20 21:55 15.71392 -61.18507 3734 ft 240 kts 207°
2026-04-20 21:55 15.70102 -61.19615 3396 ft 243 kts 223°
2026-04-20 21:55 15.68919 -61.20871 3200 ft 244 kts 223°
2026-04-20 21:55 15.67686 -61.22080 3165 ft 244 kts 221°
2026-04-20 21:56 15.66437 -61.23272 3146 ft 243 kts 220°
2026-04-20 21:56 15.65199 -61.24451 3134 ft 241 kts 221°
2026-04-20 21:56 15.64162 -61.25808 3137 ft 241 kts 239°
2026-04-20 21:56 15.63309 -61.27300 3135 ft 237 kts 238°
2026-04-20 21:57 15.62483 -61.28692 3134 ft 217 kts 237°
2026-04-20 21:57 15.61838 -61.30031 3126 ft 197 kts 245°
2026-04-20 21:57 15.61316 -61.31278 3071 ft 184 kts 246°
2026-04-20 21:57 15.60843 -61.32475 3040 ft 178 kts 247°
2026-04-20 21:58 15.60301 -61.33648 2828 ft 179 kts 237°
2026-04-20 21:58 15.59650 -61.34734 2558 ft 175 kts 237°
2026-04-20 21:58 15.59028 -61.35817 2208 ft 173 kts 236°
2026-04-20 21:58 15.58212 -61.36560 2253 ft 154 kts 197°
2026-04-20 21:59 15.57171 -61.36711 2206 ft 147 kts 172°
2026-04-20 21:59 15.56208 -61.36498 2224 ft 143 kts 159°
2026-04-20 21:59 15.55267 -61.36206 2206 ft 141 kts 161°
2026-04-20 21:59 15.54371 -61.35834 2148 ft 142 kts 146°
2026-04-20 22:00 15.53590 -61.35198 1820 ft 141 kts 136°
2026-04-20 22:00 15.52933 -61.34491 1482 ft 136 kts 123°
2026-04-20 22:00 15.52960 -61.33578 1106 ft 136 kts 53°
2026-04-20 22:00 15.53530 -61.32799 853 ft 135 kts 57°
2026-04-20 22:01 15.53993 -61.31959 562 ft 133 kts 68°
2026-04-20 22:01 15.54330 -61.31065 212 ft 131 kts 70°
2026-04-20 22:01 15.54635 -61.30219 55 ft 111 kts 69°
2026-04-20 22:01 15.54779 -61.29807 42 ft 38 kts 71°
2026-04-20 22:02 15.54845 -61.29615 34 ft 17 kts 70°
2026-04-20 22:02 15.54879 -61.29495 27 ft 18 kts 79°
2026-04-20 22:02 15.54903 -61.29434 25 ft 5 kts
2026-04-20 22:02 15.54906 -61.29453 30 ft 4 kts 246°
2026-04-20 22:03 15.54890 -61.29495 28 ft 11 kts 249°
2026-04-20 22:03 15.54859 -61.29579 31 ft 12 kts 249°
2026-04-20 22:03 15.54828 -61.29662 36 ft 12 kts 249°
2026-04-20 22:03 15.54798 -61.29742 38 ft 12 kts 250°
2026-04-20 22:04 15.54779 -61.29795 41 ft 12 kts 250°
2026-04-20 22:04 15.54753 -61.29873 45 ft 11 kts 247°
2026-04-20 22:04 15.54696 -61.29925 47 ft 11 kts 202°
2026-04-20 22:04 15.54632 -61.29967 48 ft 11 kts 236°
2026-04-20 22:05 15.54596 -61.30037 51 ft 11 kts 240°
2026-04-20 22:05 15.54576 -61.30082 50 ft 0 kts 248°